User: anonymous   Login
Location: Columbia
(38.9520°N, 92.3340°W)
Time: 20:42:40
(UTC-05:00)
Language:

SL-08 RB Rocket - Orbit

View from above orbital plane
View from above orbital plane
View from above satellite
View from above satellite

Ground track
Ground track

The orbit data is extracted from the following two-line orbital elements,

1 26387U 00033D   15111.13327861  .00001100  00000-0  20049-3 0  9992
2 26387 098.0671 179.9868 0025719 320.7052 069.1536 14.67825639792256
Epoch (UTC): 21 April 2015 03:11:55
Eccentricity: 0.0025719
inclination: 98.0671°
perigee height: 650 km
apogee height: 686 km
right ascension of ascending node: 179.9868°
argument of perigee: 320.7052°
revolutions per day: 14.67825639
mean anomaly at epoch: 69.1536°
orbit number at epoch: 79225

The dashed part of the orbit path shows where the satellite is in the earth's shadow,  

DLR